Wind_Speed
44 46 49 51 53 53 54 55 54 52 51 51 50 49 49 49 50 49 48 45 44 42 41 40 39 37 36 35 35 34 33 32 32 32 31 31 31 30 30 31 32 32 31
44 46 46 46 48 50 52 51 52 52 51 49 49 48 47 48 49 49 48 47 46 44 42 41 40 39 38 38 37 36 35 34 34 33 33 32 32 32 32 32 32 32 32
38 40 44 44 44 47 50 50 49 52 52 50 49 50 49 49 48 48 49 48 47 45 44 43 43 42 41 40 38 37 36 37 35 34 34 33 34 33 33 34 33 33 33
36 36 38 41 42 45 46 45 48 50 51 50 50 49 50 48 47 47 47 48 47 45 46 46 45 44 43 42 40 39 39 38 37 37 36 36 36 35 34 35 34 34 34
31 34 35 37 39 42 44 42 45 49 50 48 48 47 49 48 48 48 48 48 47 47 47 47 47 46 45 44 43 42 41 40 39 38 38 37 36 36 36 36 35 35 35
28 30 31 34 36 38 41 43 42 45 48 49 47 48 48 46 46 47 48 48 48 48 48 48 48 48 47 45 44 43 43 41 40 39 39 37 37 37 37 37 36 35 35
24 27 29 32 33 34 37 40 40 41 45 47 47 46 47 46 46 47 48 48 47 49 49 49 49 49 48 48 47 46 44 43 42 42 40 38 38 38 38 37 37 36 35
20 24 28 31 32 32 35 38 39 40 43 45 44 44 43 47 47 47 47 47 46 47 48 49 49 49 49 48 48 47 46 45 44 42 41 40 40 39 38 37 37 37 36
18 23 27 30 30 30 31 33 37 39 40 43 44 44 44 46 46 46 45 46 46 46 46 48 48 48 48 48 48 48 47 46 44 43 42 41 41 41 39 38 37 37 36
15 18 23 26 28 29 30 30 32 34 38 42 43 43 43 46 46 44 42 42 43 46 46 45 45 46 46 47 47 47 47 46 45 44 44 43 42 40 39 39 39 38 37
15 16 18 23 26 28 29 30 31 33 34 36 39 41 41 43 43 43 42 41 41 42 43 45 45 45 45 45 45 46 46 46 46 46 45 42 41 41 41 40 40 39 38
15 16 18 20 23 26 28 30 31 33 34 35 36 37 38 40 42 42 42 42 43 44 45 46 46 46 46 47 48 47 47 46 46 46 46 45 43 42 41 41 40 39 38
15 15 16 18 21 23 26 28 29 30 32 33 34 35 37 39 41 43 44 43 43 44 45 47 48 47 47 48 49 50 50 49 48 48 47 45 43 41 40 40 40 39 39
14 16 17 18 21 23 25 27 29 30 31 31 31 33 35 37 39 40 42 44 44 44 44 45 47 47 47 46 47 47 46 47 47 46 45 42 41 41 41 41 40 40 40
13 14 16 18 19 20 22 24 26 28 29 29 30 31 33 35 37 38 40 42 43 44 45 46 45 45 44 44 44 44 44 45 45 43 42 42 42 41 42 42 42 42 43
13 14 15 16 18 19 20 22 24 26 28 29 29 31 33 34 37 39 40 41 42 43 45 47 46 44 44 43 43 42 41 42 42 43 43 43 43 42 43 43 43 42 41
14 15 16 17 19 20 22 23 24 26 28 29 30 31 33 34 36 37 39 41 42 43 42 43 43 42 42 43 42 42 41 42 42 42 43 44 43 43 43 42 41 40 40
15 17 18 19 20 22 23 24 25 26 27 28 29 30 32 34 35 36 39 40 41 41 40 40 40 41 40 41 41 41 41 42 43 44 44 44 44 44 43 42 41 40 40
17 19 20 21 22 23 24 25 26 27 28 29 31 31 32 34 35 37 37 38 39 39 38 38 38 39 40 40 40 40 40 40 41 42 42 42 42 42 42 41 41 41 41
19 20 21 22 23 25 26 26 28 29 30 31 31 32 32 32 35 36 37 37 38 37 38 38 37 38 39 39 39 39 39 39 40 40 40 40 41 42 41 40 40 40 40
21 22 23 24 24 25 26 27 28 30 31 32 32 32 32 33 34 35 36 37 37 38 38 37 37 37 38 38 39 39 39 39 40 41 41 41 41 41 41 40 40 39 39
24 25 26 26 26 27 27 28 29 30 31 31 32 34 34 34 35 35 36 37 37 38 38 37 36 37 38 38 39 39 39 40 40 40 40 40 40 41 40 40 40 39 39
26 27 28 28 28 28 27 27 28 29 31 32 33 33 34 35 35 36 37 38 38 38 38 39 38 37 37 38 39 39 38 39 39 39 39 39 39 39 40 40 39 39 39
28 29 29 29 28 28 28 29 29 29 30 32 33 34 34 35 35 37 38 38 38 38 39 38 39 38 38 39 39 39 39 39 39 39 39 40 40 39 38 39 39 39 39
28 29 31 30 29 28 28 28 29 30 32 33 34 34 35 36 36 37 38 39 39 38 38 38 38 39 39 39 39 40 39 39 39 38 39 39 39 38 38 38 38 38 38
29 30 31 31 29 28 28 28 28 30 32 33 34 35 36 37 37 37 38 39 39 39 39 39 39 38 38 38 39 39 39 38 37 38 38 38 38 38 38 38 38 38 37
Wind_Direction
221 222 221 220 219 220 219 217 215 214 216 217 218 218 219 222 224 227 229 231 233 235 238 240 242 244 246 247 249 251 254 256 259 259 262 264 266 269 273 276 278 280 282
223 224 223 221 219 218 217 218 218 216 216 218 219 219 220 222 224 226 227 230 232 235 237 239 242 245 247 250 251 252 254 256 259 260 262 264 266 270 273 275 277 280 282
224 224 224 223 221 218 217 219 218 216 217 219 221 221 220 222 224 226 228 229 232 234 236 239 242 244 247 250 252 254 256 258 259 261 263 265 266 269 272 274 276 278 280
225 225 225 224 223 219 216 220 218 217 218 220 223 223 223 223 224 226 229 230 232 234 237 239 242 244 247 250 251 253 256 258 261 263 264 265 267 269 272 274 276 277 277
227 229 229 230 227 222 221 222 221 220 221 223 225 225 225 225 225 226 229 232 234 236 238 241 244 246 248 250 250 253 255 258 260 262 264 267 268 270 273 275 275 276 277
229 232 231 234 232 230 229 228 226 225 225 226 226 226 227 226 227 229 230 233 235 238 240 242 244 247 249 250 250 254 256 257 260 262 265 267 268 270 273 275 275 276 276
234 237 236 237 236 235 233 230 229 230 229 229 231 233 232 231 232 232 234 236 238 240 242 243 245 247 249 251 253 256 257 259 261 264 267 268 269 270 271 273 273 274 275
242 245 243 241 239 238 235 234 233 235 234 233 234 235 237 235 234 236 238 240 241 243 245 246 247 249 251 253 255 256 258 259 261 264 266 268 269 269 271 272 272 272 274
253 254 249 246 243 243 242 240 238 240 240 238 239 240 242 240 239 240 241 243 244 245 247 248 249 252 253 254 256 257 258 260 261 263 266 269 269 270 271 271 271 274 275
262 261 256 252 249 246 246 247 244 242 242 241 242 244 246 244 243 244 244 246 247 249 250 251 250 252 253 253 255 257 257 259 261 263 266 267 268 269 269 268 270 273 274
265 262 259 255 252 252 250 250 250 248 247 248 248 249 248 246 245 244 244 246 249 249 250 252 253 254 255 256 256 257 257 258 260 262 263 263 265 268 268 268 269 271 273
272 267 264 261 259 259 257 255 255 253 254 253 250 249 249 248 245 245 248 248 249 250 252 253 253 256 257 258 258 258 257 258 259 260 261 263 265 266 267 268 269 270 273
276 270 267 266 264 263 262 261 260 259 257 256 253 251 250 250 249 249 249 250 251 251 252 252 254 255 255 257 259 259 259 258 258 259 260 262 263 263 265 267 268 270 273
284 275 269 269 266 265 263 261 259 258 257 256 254 252 253 254 253 252 252 252 253 253 253 254 255 255 256 257 256 255 255 256 256 256 258 259 260 262 264 266 268 271 273
291 286 275 266 264 263 264 262 260 257 254 255 255 254 255 255 255 255 255 255 254 253 254 255 256 255 255 256 255 253 254 254 254 255 256 258 261 263 265 266 269 271 273
292 290 283 273 270 269 268 267 263 258 255 256 256 256 257 256 257 258 257 257 257 257 256 255 254 253 255 255 255 253 253 254 255 256 257 259 261 264 265 267 269 271 272
291 289 285 280 275 273 273 270 264 260 259 258 258 258 259 259 258 258 257 257 258 258 257 254 252 253 255 254 254 253 254 254 254 256 257 259 260 262 264 267 268 269 271
300 291 284 280 275 273 273 268 262 259 258 257 257 259 261 261 260 259 258 258 257 257 254 253 253 254 254 253 253 253 253 254 255 256 258 259 260 261 263 264 266 269 272
305 298 292 286 279 275 272 267 262 259 260 260 261 260 260 259 259 260 260 258 256 255 254 255 255 255 253 253 253 252 253 255 256 256 257 258 259 260 262 264 266 269 271
308 303 296 290 285 279 273 268 264 261 261 262 262 260 259 260 258 257 258 258 258 257 256 257 256 257 256 254 253 252 254 256 256 256 257 258 260 261 263 264 267 268 270
313 309 303 298 292 285 277 271 267 264 263 263 263 262 261 261 260 258 257 258 258 258 257 257 256 256 254 253 255 254 254 254 255 256 257 259 260 262 263 265 267 268 269
313 312 308 303 298 290 281 275 271 267 266 265 265 265 263 263 262 260 259 259 259 259 259 258 256 255 255 254 255 256 254 254 255 256 257 259 261 262 263 264 265 266 268
314 314 312 307 302 295 286 280 275 270 267 267 267 267 265 263 263 262 261 261 261 259 259 258 257 256 256 255 255 255 255 253 254 256 258 259 261 261 262 263 264 265 267
316 315 315 313 308 301 292 284 279 275 271 269 269 268 267 264 263 262 261 260 261 260 259 258 256 254 254 255 254 255 255 255 256 257 258 259 260 261 262 262 262 264 265
320 319 318 316 312 305 297 290 284 280 277 274 271 269 268 266 264 263 262 261 260 258 258 257 256 256 256 256 256 255 255 256 257 258 258 259 259 259 260 262 262 263 265
321 320 319 317 313 308 302 295 289 284 279 275 273 270 269 268 267 265 263 261 259 258 258 257 257 257 256 256 256 256 256 257 257 258 258 259 259 259 260 261 262 263 265
Height
5667 5672 5677 5683 5690 5696 5703 5711 5718 5724 5731 5738 5744 5750 5757 5764 5770 5776 5781 5786 5791 5796 5800 5804 5808 5811 5813 5815 5817 5819 5821 5822 5823 5825 5825 5826 5827 5827 5827 5827 5826 5826 5825
5661 5666 5671 5677 5683 5689 5696 5703 5710 5717 5724 5732 5737 5744 5750 5756 5763 5768 5773 5778 5783 5787 5792 5796 5800 5803 5806 5808 5810 5812 5813 5815 5816 5817 5818 5819 5821 5820 5820 5820 5820 5819 5819
5655 5660 5666 5672 5678 5684 5691 5697 5704 5710 5717 5724 5730 5736 5741 5747 5753 5759 5765 5770 5775 5779 5784 5788 5791 5795 5798 5800 5802 5804 5806 5808 5809 5810 5811 5812 5813 5814 5814 5813 5813 5812 5812
5651 5655 5660 5666 5671 5678 5684 5691 5697 5704 5710 5716 5722 5728 5734 5740 5747 5752 5757 5762 5767 5771 5775 5779 5783 5786 5789 5792 5794 5796 5798 5799 5801 5802 5803 5804 5805 5806 5806 5806 5805 5805 5804
5647 5652 5657 5662 5667 5672 5678 5684 5690 5696 5703 5709 5715 5721 5727 5733 5738 5744 5749 5753 5758 5763 5767 5770 5774 5777 5780 5782 5785 5787 5789 5791 5793 5794 5795 5796 5796 5797 5797 5798 5798 5797 5796
5645 5649 5653 5657 5662 5667 5672 5678 5684 5689 5695 5701 5707 5712 5718 5724 5730 5735 5740 5744 5749 5753 5757 5761 5765 5768 5771 5773 5776 5778 5780 5782 5784 5785 5786 5787 5788 5788 5788 5789 5789 5789 5788
5642 5646 5649 5653 5657 5662 5666 5672 5677 5682 5688 5694 5699 5705 5710 5715 5721 5726 5731 5735 5739 5744 5748 5751 5754 5758 5761 5764 5766 5769 5771 5773 5775 5776 5777 5778 5779 5779 5780 5780 5780 5780 5780
5640 5643 5645 5649 5653 5657 5661 5666 5671 5676 5681 5686 5691 5697 5701 5706 5711 5717 5721 5726 5730 5734 5738 5741 5745 5748 5751 5754 5756 5759 5761 5763 5765 5766 5767 5768 5769 5770 5770 5771 5771 5771 5771
5637 5639 5642 5645 5648 5652 5656 5660 5665 5670 5674 5679 5684 5688 5692 5696 5702 5707 5711 5716 5719 5724 5727 5731 5734 5737 5740 5743 5745 5748 5750 5753 5755 5756 5757 5759 5759 5760 5761 5761 5761 5762 5762
5634 5636 5637 5640 5643 5647 5650 5654 5658 5662 5667 5671 5675 5679 5683 5688 5692 5696 5701 5706 5709 5713 5717 5720 5723 5726 5729 5731 5734 5736 5739 5741 5743 5745 5746 5748 5749 5750 5750 5751 5751 5751 5752
5630 5632 5633 5635 5638 5641 5644 5648 5651 5655 5659 5663 5666 5670 5674 5678 5682 5687 5691 5695 5699 5703 5706 5710 5712 5715 5718 5720 5722 5725 5727 5730 5732 5733 5735 5736 5738 5739 5740 5740 5741 5741 5741
5626 5627 5629 5631 5632 5635 5638 5641 5644 5647 5650 5653 5657 5660 5664 5668 5673 5677 5681 5684 5688 5692 5696 5699 5702 5704 5706 5708 5711 5713 5715 5718 5720 5722 5724 5725 5727 5728 5729 5729 5730 5730 5730
5623 5623 5624 5626 5627 5629 5632 5634 5636 5639 5642 5645 5648 5651 5655 5659 5663 5667 5670 5673 5677 5681 5684 5687 5690 5692 5694 5696 5698 5700 5703 5705 5708 5710 5712 5714 5715 5716 5717 5718 5718 5719 5719
5620 5620 5621 5621 5623 5625 5626 5628 5630 5632 5634 5637 5640 5643 5647 5650 5654 5657 5660 5663 5666 5669 5672 5674 5677 5679 5681 5683 5685 5687 5689 5692 5695 5697 5699 5701 5703 5705 5706 5707 5707 5707 5707
5617 5617 5617 5618 5619 5620 5621 5622 5624 5625 5627 5629 5632 5635 5638 5641 5644 5646 5649 5651 5654 5657 5659 5662 5664 5666 5668 5670 5672 5674 5677 5679 5682 5685 5687 5690 5691 5693 5694 5695 5696 5696 5696
5615 5613 5613 5614 5614 5615 5615 5616 5617 5618 5620 5622 5625 5627 5629 5631 5633 5636 5638 5640 5642 5644 5647 5649 5652 5654 5656 5658 5660 5662 5665 5667 5670 5673 5676 5678 5680 5681 5682 5683 5683 5683 5684
5612 5610 5609 5609 5609 5609 5609 5609 5610 5611 5613 5615 5616 5618 5620 5622 5624 5625 5627 5629 5631 5632 5635 5637 5639 5641 5643 5646 5648 5650 5653 5656 5658 5661 5663 5665 5667 5669 5670 5671 5671 5672 5672
5607 5606 5604 5603 5603 5602 5602 5602 5603 5604 5605 5606 5607 5609 5610 5612 5614 5615 5616 5618 5620 5621 5623 5625 5628 5630 5631 5633 5636 5638 5641 5644 5646 5649 5651 5653 5655 5656 5658 5659 5660 5660 5661
5602 5600 5598 5596 5595 5594 5594 5594 5594 5595 5596 5597 5598 5599 5600 5601 5603 5604 5606 5607 5608 5610 5612 5614 5616 5618 5620 5622 5624 5626 5628 5631 5634 5636 5638 5641 5642 5644 5645 5647 5648 5649 5649
5597 5595 5592 5590 5588 5586 5585 5585 5585 5586 5587 5587 5588 5589 5589 5590 5592 5593 5594 5596 5598 5599 5601 5603 5604 5606 5608 5610 5612 5615 5617 5620 5622 5624 5627 5629 5630 5632 5634 5635 5636 5637 5638
5591 5588 5585 5583 5580 5578 5577 5576 5576 5576 5577 5577 5578 5579 5579 5580 5581 5582 5583 5585 5587 5588 5590 5592 5593 5595 5597 5599 5601 5603 5606 5608 5611 5613 5615 5617 5619 5620 5622 5623 5625 5625 5626
5585 5582 5578 5575 5572 5570 5568 5567 5567 5567 5567 5567 5568 5568 5569 5569 5570 5571 5572 5574 5575 5577 5579 5580 5582 5584 5585 5588 5590 5592 5594 5596 5598 5601 5603 5605 5607 5608 5610 5611 5613 5614 5614
5579 5575 5571 5567 5563 5560 5558 5557 5557 5557 5557 5557 5558 5558 5558 5558 5559 5560 5561 5563 5564 5566 5567 5569 5570 5572 5574 5576 5578 5580 5582 5584 5586 5589 5591 5593 5595 5596 5598 5599 5601 5602 5602
5573 5569 5564 5560 5555 5552 5549 5548 5547 5546 5546 5547 5547 5547 5547 5548 5548 5549 5550 5551 5553 5554 5556 5557 5559 5561 5563 5564 5566 5568 5570 5572 5574 5577 5579 5581 5583 5585 5586 5587 5589 5590 5591
5567 5562 5557 5552 5548 5544 5541 5539 5538 5537 5536 5536 5535 5535 5535 5536 5537 5537 5538 5539 5540 5542 5543 5545 5547 5549 5551 5552 5554 5556 5558 5560 5563 5565 5567 5569 5571 5572 5574 5575 5577 5578 5578
5562 5557 5551 5546 5541 5537 5534 5531 5529 5527 5526 5525 5524 5524 5524 5524 5525 5525 5526 5527 5528 5530 5531 5533 5535 5536 5538 5540 5542 5544 5546 5548 5550 5553 5555 5557 5559 5561 5562 5564 5565 5566 5567